Regional Weather Roundup
Issued by NWS

Home | Current Version | Previous Version | Graphics & Text | Print | Product List | Glossary On
Versions: 1 2 3 4 5 6 7 8 9 10 11 12 13 14 15 16 17 18 19 20 21 22 23 24 25 26 27 28 29 30 31 32 33 34 35 36 37 38 39 40 41 42 43 44 45 46 47 48 49 50
000
ASUS45 KABQ 170801
RWRNM
WEATHER ROUNDUP FOR NEW MEXICO
NATIONAL WEATHER SERVICE ALBUQUERQUE NM
200 AM MDT WED SEP 17 2014

NOTE: "FAIR" MEANS FEW OR NO CLOUDS BELOW 12,000 FEET AGL WITH NO
       SIGNIFICANT WEATHER OR OBSTRUCTIONS TO VISION.

      THIS PRODUCT IS RELEASED AS TWO VERSIONS.  ONE VERSION NEAR
      THE TOP OF THE HOUR CONTAINING PRELIMINARY DATA FROM ALBUQUERQUE
      AND OTHER STATIONS.  A FINAL VERSION WITH ADDITIONAL DATA IS
      ISSUED ABOUT 10 MINUTES AFTER THE HOUR.

NMZ501-503-504-510>518-170900-
NORTHWEST PLATEAU/NORTHCENTRAL MOUNTAINS

CITY           SKY/WX    TMP DP  RH WIND       PRES   REMARKS
FARMINGTON     CLEAR     67  53  61 E9        30.16S
LOS ALAMOS     CLOUDY    55  55  99 SW6       30.29F
SANTA FE       CLOUDY    57  52  83 CALM      30.25F
ANGEL FIRE     FAIR      37  34  89 CALM      30.39S

$$
NMZ402-403-502-505>509-170900-
WESTCENTRAL MOUNTAINS/SOUTHWEST MOUNTAINS

CITY           SKY/WX    TMP DP  RH WIND       PRES   REMARKS
GALLUP         CLOUDY    61  52  72 CALM      30.23F
GRANTS         CLOUDY    55  52  88 S5        30.26F
SILVER CITY    LGT RAIN  63  63 100 SE7       30.20S

$$
NMZ407-409-411-412-170900-
SOUTHERN DESERTS

CITY           SKY/WX    TMP DP  RH WIND       PRES   REMARKS
LORDSBURG      PTSUNNY   66  63  88 E9        30.08F
DEMING         RAIN      64  64 100 NE9       30.12S FOG
LAS CRUCES     LGT RAIN  66  64  93 NW3       30.13S
HOLLOMAN AFB   CLOUDY    65  65 100 CALM      30.10F
ALAMOGORDO     CLOUDY    64  64 100 SE3       30.12F
T OR C         CLOUDY    64  62  93 N5        30.15S

$$
NMZ519>523-170900-
CENTRAL VALLEYS/CENTRAL HIGHLANDS

CITY           SKY/WX    TMP DP  RH WIND       PRES   REMARKS
ALBUQUERQUE    CLOUDY    62  53  72 SE3       30.21F
DOUBLE EAGLE   CLOUDY    58  55  89 S6        30.24S
CLINES CORNERS CLOUDY    55  51  86 W10       30.27F
BELEN          DRIZZLE   60  58  94 CALM      30.20S
SOCORRO        CLOUDY    63  62  97 N5        30.17S

$$
NMZ524>526-539-540-170900-
SOUTHCENTRAL MOUNTAINS

CITY           SKY/WX    TMP DP  RH WIND       PRES   REMARKS
RUIDOSO        NOT AVBL

$$
NMZ527>531-170900-
NORTHEAST HIGHLANDS/NORTHEAST PLAINS

CITY           SKY/WX    TMP DP  RH WIND       PRES   REMARKS
LAS VEGAS      MOCLDY    53  48  83 S3        30.25F
RATON          CLOUDY    56  53  90 N5        30.21F
CLAYTON        CLOUDY    61  56  83 W12       30.11S

$$
NMZ532>537-170900-
EASTCENTRAL PLAINS

CITY           SKY/WX    TMP DP  RH WIND       PRES   REMARKS
TUCUMCARI      MOCLDY    65  59  81 W7        30.11S
CANNON AFB     MOCLDY    64  61  88 W8        30.15S
CLOVIS AIRPORT   N/A     64  61  88 W3        30.17S

$$
NMZ028-029-538-170900-
SOUTHEAST PLAINS

CITY           SKY/WX    TMP DP  RH WIND       PRES   REMARKS
ROSWELL        CLOUDY    66  65  96 SW3       30.12S FOG
CARLSBAD       CLOUDY    68  32  26 W5        30.09S
HOBBS          MOCLDY    66  66 100 E3        30.13S


$$



USA.gov is the U.S. government's official web portal to all federal, state and local government web resources and services.